Showing default

COSMOS 532, 6267

Orbit data source: Space-Track

COSMOS 532, 6267 is a payload satellite owned by OKB-10 (CIS) in LEO that was launched on Wed, 01 Nov 1972 UTC via a KOSMOS 11K65M launch vehicle from the Plesetsk Missile And Space Complex (PKMTR). Payload-class satellites include a variety of spacecraft equipped with specific instruments for various scientific and technological missions. These include communications satellites like Starlink; space stations such as the ISS; scientific satellites like the Hubble; Earth observation satellites from companies like Planet Labs, Umbra, and HawkEye 360; GPS; miniature CubeSats for education and research; and military/defense satellites.

Loading next visibility...
Identifier
6267, 1972-087E
Orbit
LEO
Country
Flag of CISCIS
Related business
Manufacturer
OKB-10
Mission
Spacecraft
Bus & Motor
STRELA-1 11F625, Unknown motor
Mass
60 kg wet, 60 kg dry
Launch date (UTC)
1972-11-01 (54 years ago)
Launch vehicle
KOSMOS 11K65M
Launch site
Plesetsk Missile And Space Complex (PKMTR)
Object type
Payload
Rocket body
Debris
Shape & HBR
Unknown
Radar Cross Section
Medium (>0.1 m² and <1 m²)

Expand to show TLE details & history
Last TLE update: 2 days ago

TLE from 2 days ago
0 COSMOS 532
1  6267U 72087E   26171.24084343  .00000011  00000-0  13355-3 0  9992
2  6267  74.0352  92.6329 0107765 143.8206   9.8107 12.69743025485680
Epoch: 2026-06-20T05:46Z
TLE epoch observation values (Epoch: 2026-06-20T05:46:48.872Z)
Latitude
25.10894°
Longitude
-90.1947°
Altitude
1,303.155 km
Speed
7.245 km/s
True Right ascension
17h 39m 52s
True Declination
24° 59' 11"
Sunlit
Object was in full shadow at epoch
Visualization orbit readout
Latitude
Unknown
Longitude
Unknown
Altitude
Unknown
Speed
Unknown
Apparent Right ascension
Unknown
Apparent Declination
Unknown
Sunlit
N/A
Visualization observer readout
Local Sidereal Time
23:08:30
Azimuth
Unknown
Elevation
Unknown
Doppler factor
Unknown
Orbital elements
Apogee altitude
1,464.413 km
Perigee altitude
1,297.184 km
Semi-major axis
7,758.935 km
Eccentricity
0.01078
Inclination
74.0352°
RAAN
92.6329°
Arg. of periapsis
143.8206°
True anomaly
10.02395°
Mean anomaly
9.8107°
Eccentric anomaly
9.91704°
Mean motion
3.1757 °/min
Orbital period
113.36 mins
BSTAR
0.00013355
Loading maneuver chart data...
Computing Atmospheric mass density...
Loading historical data...
Loading historical data...
Loading historical data...
Loading historical data...
Loading historical data...
Loading historical data...
Loading historical data...

Documentation

Showing up to 5 results
|